| time (UTC) | temp F | wind direction | speed knots | gust knots | rain 1hr in | rain 24hr in | rain mn in | humidity % | barometer mb |
| 20260906174541 | 95 | 0 | 0.0 | 2.6 | 0.00 | 0.73 | 0.01 | 71 | 1010.9 |
| 20260906174021 | 95 | 0 | 0.0 | 2.6 | 0.00 | 0.73 | 0.01 | 74 | 1010.8 |
| 20260906173520 | 94 | 233 | 0.0 | 1.7 | 0.00 | 0.73 | 0.01 | 75 | 1010.9 |
| 20260906173038 | 94 | 187 | 0.0 | 2.6 | 0.00 | 0.73 | 0.01 | 76 | 1011.0 |
| 20260906172521 | 94 | 0 | 0.0 | 3.5 | 0.00 | 0.73 | 0.01 | 77 | 1010.9 |
| 20260906172020 | 93 | 0 | 0.0 | 3.5 | 0.00 | 0.73 | 0.01 | 73 | 1010.9 |
| 20260906171541 | 93 | 0 | 0.0 | 2.6 | 0.00 | 0.73 | 0.01 | 77 | 1011.1 |
| 20260906171022 | 93 | 235 | 0.9 | 2.6 | 0.00 | 0.73 | 0.01 | 74 | 1011.1 |
| 20260906170525 | 94 | 0 | 0.0 | 0.9 | 0.00 | 0.73 | 0.01 | 75 | 1011.2 |
| 20260906170049 | 93 | 0 | 0.0 | 2.6 | 0.00 | 0.73 | 0.01 | 77 | 1011.3 |
| 20260906165517 | 92 | 0 | 0.0 | 2.6 | 0.00 | 0.95 | 0.01 | 75 | 1011.4 |
| 20260906165022 | 92 | 126 | 0.0 | 0.9 | 0.00 | 0.95 | 0.01 | 77 | 1011.4 |
| 20260906164544 | 92 | 0 | 0.0 | 2.6 | 0.00 | 0.95 | 0.01 | 78 | 1011.4 |
| 20260906164020 | 91 | 0 | 0.0 | 5.2 | 0.00 | 0.95 | 0.01 | 79 | 1011.5 |
| 20260906163520 | 91 | 0 | 0.9 | 5.2 | 0.00 | 0.95 | 0.01 | 79 | 1011.6 |
| 20260906163049 | 91 | 0 | 0.0 | 2.6 | 0.00 | 0.95 | 0.01 | 80 | 1011.6 |
| 20260906162520 | 90 | 0 | 0.0 | 2.6 | 0.00 | 0.95 | 0.01 | 80 | 1011.7 |
| 20260906162019 | 90 | 0 | 0.0 | 2.6 | 0.00 | 0.95 | 0.01 | 81 | 1011.6 |
| 20260906161540 | 90 | 0 | 0.9 | 3.5 | 0.00 | 0.95 | 0.01 | 81 | 1011.7 |
| 20260906161019 | 89 | 0 | 0.0 | 3.5 | 0.00 | 0.95 | 0.01 | 84 | 1011.8 |
| 20260906160519 | 88 | 8 | 0.0 | 2.6 | 0.00 | 0.95 | 0.01 | 86 | 1011.9 |
| 20260906160048 | 88 | 0 | 0.0 | 2.6 | 0.00 | 0.95 | 0.01 | 88 | 1011.9 |
| 20260906155524 | 88 | 0 | 0.0 | 0.0 | 0.00 | 0.95 | 0.01 | 91 | 1011.9 |
| 20260906155021 | 87 | 0 | 0.0 | 1.7 | 0.00 | 0.95 | 0.01 | 96 | 1011.9 |
| 20260906154537 | 86 | 0 | 0.0 | 1.7 | 0.00 | 0.95 | 0.01 | 97 | 1011.9 |
| 20260906154021 | 86 | 0 | 0.0 | 1.7 | 0.00 | 0.95 | 0.01 | 99 | 1012.1 |
| 20260906153521 | 86 | 250 | 0.0 | 1.7 | 0.00 | 0.95 | 0.01 | 98 | 1012.0 |
| 20260906153045 | 86 | 0 | 0.0 | 1.7 | 0.00 | 0.95 | 0.01 | 99 | 1012.0 |
| 20260906152522 | 86 | 270 | 0.0 | 0.9 | 0.00 | 0.95 | 0.01 | 100 | 1012.1 |
| 20260906152020 | 86 | 0 | 0.0 | 0.9 | 0.00 | 0.95 | 0.01 | 100 | 1012.2 |
| 20260906151540 | 85 | 0 | 0.0 | 0.9 | 0.00 | 0.95 | 0.01 | 100 | 1012.3 |
| 20260906151019 | 85 | 0 | 0.0 | 5.2 | 0.00 | 0.95 | 0.01 | 100 | 1012.3 |
| 20260906150519 | 85 | 222 | 0.0 | 5.2 | 0.00 | 0.95 | 0.01 | 100 | 1012.4 |
| 20260906150052 | 84 | 122 | 0.0 | 2.6 | 0.00 | 0.95 | 0.01 | 100 | 1012.3 |
| 20260906145520 | 84 | 28 | 0.0 | 2.6 | 0.00 | 0.95 | 0.01 | 100 | 1012.3 |
| 20260906145020 | 84 | 212 | 0.9 | 2.6 | 0.00 | 0.95 | 0.01 | 100 | 1012.2 |
| 20260906144556 | 84 | 255 | 0.0 | 0.9 | 0.00 | 0.95 | 0.01 | 100 | 1012.2 |
| 20260906144020 | 83 | 0 | 0.0 | 0.9 | 0.00 | 0.95 | 0.01 | 100 | 1012.2 |
| 20260906143521 | 84 | 147 | 0.0 | 1.7 | 0.00 | 0.95 | 0.01 | 100 | 1012.2 |
| 20260906143040 | 83 | 0 | 0.0 | 1.7 | 0.00 | 0.95 | 0.01 | 100 | 1012.2 |
| 20260906142519 | 83 | 0 | 0.0 | 1.7 | 0.00 | 0.95 | 0.01 | 100 | 1012.2 |
| 20260906142021 | 83 | 0 | 0.0 | 1.7 | 0.00 | 0.95 | 0.01 | 100 | 1012.1 |
| 20260906141545 | 82 | 0 | 0.0 | 1.7 | 0.00 | 0.95 | 0.01 | 100 | 1012.1 |
| 20260906141019 | 82 | 0 | 0.0 | 1.7 | 0.00 | 0.95 | 0.01 | 100 | 1012.3 |
| 20260906140517 | 82 | 0 | 0.0 | 1.7 | 0.00 | 0.95 | 0.01 | 100 | 1012.3 |
| 20260906140040 | 82 | 0 | 0.0 | 1.7 | 0.00 | 0.95 | 0.01 | 100 | 1012.3 |
| 20260906135520 | 81 | 0 | 0.0 | 1.7 | 0.00 | 0.95 | 0.01 | 100 | 1012.3 |
| 20260906135020 | 81 | 0 | 0.0 | 1.7 | 0.00 | 0.95 | 0.01 | 100 | 1012.4 |
| 20260906134542 | 81 | 0 | 0.0 | 0.0 | 0.00 | 0.95 | 0.01 | 100 | 1012.4 |
| 20260906134019 | 81 | 0 | 0.0 | 0.9 | 0.00 | 0.95 | 0.01 | 100 | 1012.2 |
| 20260906133520 | 80 | 0 | 0.0 | 0.9 | 0.00 | 0.95 | 0.01 | 100 | 1012.3 |
| 20260906133036 | 81 | 0 | 0.0 | 0.9 | 0.00 | 0.95 | 0.01 | 100 | 1012.3 |
| 20260906132520 | 80 | 0 | 0.0 | 0.9 | 0.00 | 0.95 | 0.01 | 100 | 1012.3 |
| 20260906132026 | 80 | 0 | 0.0 | 0.9 | 0.00 | 0.95 | 0.01 | 100 | 1012.3 |
| 20260906131540 | 81 | 0 | 0.0 | 0.0 | 0.00 | 0.95 | 0.01 | 100 | 1012.3 |
| 20260906131020 | 79 | 0 | 0.0 | 0.0 | 0.00 | 0.95 | 0.01 | 100 | 1012.2 |
| 20260906130519 | 79 | 0 | 0.0 | 0.9 | 0.00 | 0.95 | 0.01 | 100 | 1012.2 |
| 20260906130047 | 78 | 0 | 0.0 | 0.9 | 0.00 | 0.95 | 0.01 | 100 | 1012.3 |
| 20260906125522 | 78 | 0 | 0.0 | 0.0 | 0.00 | 0.95 | 0.01 | 100 | 1012.3 |
| 20260906125023 | 78 | 0 | 0.0 | 0.0 | 0.00 | 0.95 | 0.01 | 100 | 1012.4 |
| 20260906124542 | 77 | 0 | 0.0 | 0.0 | 0.00 | 0.95 | 0.01 | 100 | 1012.4 |
| 20260906124021 | 77 | 0 | 0.0 | 0.0 | 0.00 | 0.95 | 0.01 | 100 | 1012.4 |
| 20260906123520 | 76 | 0 | 0.0 | 0.0 | 0.00 | 0.95 | 0.01 | 100 | 1012.4 |
| 20260906123038 | 76 | 0 | 0.0 | 0.0 | 0.00 | 0.95 | 0.01 | 100 | 1012.5 |
| 20260906122521 | 75 | 0 | 0.0 | 0.0 | 0.00 | 0.95 | 0.01 | 100 | 1012.5 |
| 20260906122021 | 75 | 0 | 0.0 | 0.0 | 0.00 | 0.95 | 0.01 | 100 | 1012.4 |
| 20260906121541 | 75 | 0 | 0.0 | 0.0 | 0.00 | 0.95 | 0.01 | 100 | 1012.3 |
| 20260906121020 | 74 | 0 | 0.0 | 0.0 | 0.00 | 0.95 | 0.01 | 100 | 1012.3 |
| 20260906120520 | 74 | 0 | 0.0 | 0.0 | 0.00 | 0.95 | 0.01 | 100 | 1012.3 |
| 20260906120048 | 74 | 0 | 0.0 | 0.0 | 0.00 | 0.95 | 0.01 | 100 | 1012.3 |
| 20260906115521 | 73 | 0 | 0.0 | 0.0 | 0.00 | 0.95 | 0.01 | 100 | 1012.2 |
| 20260906115019 | 73 | 0 | 0.0 | 0.0 | 0.00 | 0.95 | 0.01 | 100 | 1012.1 |
| 20260906114541 | 73 | 0 | 0.0 | 0.0 | 0.00 | 0.95 | 0.01 | 100 | 1012.1 |
| 20260906114021 | 73 | 0 | 0.0 | 0.0 | 0.00 | 0.95 | 0.01 | 100 | 1012.0 |
| 20260906113522 | 73 | 0 | 0.0 | 0.0 | 0.00 | 0.95 | 0.01 | 100 | 1012.0 |
| 20260906113038 | 73 | 0 | 0.0 | 0.0 | 0.00 | 0.95 | 0.01 | 100 | 1011.8 |
| 20260906112520 | 73 | 0 | 0.0 | 0.0 | 0.00 | 0.95 | 0.01 | 100 | 1011.8 |
| 20260906112021 | 73 | 0 | 0.0 | 0.0 | 0.00 | 0.95 | 0.01 | 100 | 1011.8 |
| 20260906111548 | 73 | 0 | 0.0 | 0.0 | 0.00 | 0.95 | 0.01 | 100 | 1011.8 |
| 20260906111019 | 73 | 0 | 0.0 | 0.0 | 0.00 | 0.95 | 0.01 | 100 | 1011.7 |
| 20260906110520 | 73 | 0 | 0.0 | 0.0 | 0.00 | 0.95 | 0.01 | 100 | 1011.7 |
| 20260906110044 | 73 | 0 | 0.0 | 0.0 | 0.00 | 0.95 | 0.01 | 100 | 1011.6 |
| 20260906105519 | 73 | 0 | 0.0 | 0.0 | 0.00 | 0.95 | 0.01 | 100 | 1011.5 |
| 20260906105021 | 73 | 0 | 0.0 | 0.0 | 0.00 | 0.95 | 0.01 | 100 | 1011.4 |
| 20260906104545 | 73 | 0 | 0.0 | 0.0 | 0.00 | 0.95 | 0.01 | 100 | 1011.4 |
| 20260906104016 | 73 | 0 | 0.0 | 0.0 | 0.00 | 0.95 | 0.01 | 100 | 1011.3 |
| 20260906103522 | 73 | 0 | 0.0 | 0.0 | 0.00 | 0.95 | 0.01 | 100 | 1011.3 |
| 20260906103036 | 73 | 0 | 0.0 | 0.0 | 0.00 | 0.95 | 0.01 | 100 | 1011.2 |
| 20260906102521 | 73 | 0 | 0.0 | 0.0 | 0.00 | 0.95 | 0.01 | 100 | 1011.2 |
| 20260906102021 | 73 | 0 | 0.0 | 0.0 | 0.00 | 0.95 | 0.01 | 100 | 1011.1 |
| 20260906101541 | 73 | 0 | 0.0 | 0.0 | 0.00 | 0.95 | 0.01 | 100 | 1011.2 |
| 20260906101020 | 73 | 0 | 0.0 | 0.0 | 0.00 | 0.95 | 0.01 | 100 | 1011.1 |
| 20260906100520 | 73 | 0 | 0.0 | 0.0 | 0.00 | 0.95 | 0.01 | 100 | 1011.0 |
| 20260906100044 | 73 | 0 | 0.0 | 0.0 | 0.00 | 0.95 | 0.01 | 100 | 1011.0 |
| 20260906095519 | 73 | 0 | 0.0 | 0.0 | 0.00 | 0.95 | 0.01 | 100 | 1010.9 |
| 20260906095021 | 73 | 0 | 0.0 | 0.0 | 0.00 | 0.95 | 0.01 | 100 | 1010.7 |
| 20260906094605 | 73 | 0 | 0.0 | 0.0 | 0.00 | 0.95 | 0.01 | 100 | 1010.7 |
| 20260906094021 | 73 | 0 | 0.0 | 0.0 | 0.00 | 0.95 | 0.01 | 100 | 1010.7 |
| 20260906093519 | 73 | 0 | 0.0 | 0.0 | 0.00 | 0.95 | 0.01 | 100 | 1010.7 |
| 20260906093039 | 73 | 0 | 0.0 | 0.0 | 0.00 | 0.95 | 0.01 | 100 | 1010.8 |
| 20260906092525 | 73 | 0 | 0.0 | 0.0 | 0.00 | 0.95 | 0.01 | 100 | 1010.7 |
| 20260906092023 | 73 | 0 | 0.0 | 0.0 | 0.00 | 0.95 | 0.01 | 100 | 1010.7 |
| 20260906091545 | 73 | 0 | 0.0 | 0.0 | 0.00 | 0.95 | 0.01 | 100 | 1010.5 |
| 20260906091019 | 73 | 0 | 0.0 | 0.0 | 0.00 | 0.95 | 0.01 | 100 | 1010.4 |
| 20260906090521 | 73 | 0 | 0.0 | 0.0 | 0.00 | 0.95 | 0.01 | 100 | 1010.4 |
| 20260906090037 | 73 | 0 | 0.0 | 0.0 | 0.00 | 0.95 | 0.01 | 100 | 1010.4 |
| 20260906085520 | 73 | 0 | 0.0 | 0.0 | 0.00 | 0.95 | 0.01 | 100 | 1010.4 |
| 20260906085021 | 73 | 0 | 0.0 | 0.0 | 0.00 | 0.95 | 0.01 | 100 | 1010.5 |
| 20260906084542 | 73 | 0 | 0.0 | 0.0 | 0.00 | 0.95 | 0.01 | 100 | 1010.6 |
| 20260906084021 | 74 | 0 | 0.0 | 0.0 | 0.00 | 0.95 | 0.01 | 100 | 1010.6 |
| 20260906083521 | 74 | 0 | 0.0 | 0.0 | 0.00 | 0.95 | 0.01 | 100 | 1010.5 |
| 20260906083037 | 74 | 0 | 0.0 | 0.0 | 0.00 | 0.95 | 0.01 | 100 | 1010.5 |
| 20260906082519 | 74 | 0 | 0.0 | 0.0 | 0.01 | 0.95 | 0.01 | 100 | 1010.4 |
| 20260906082024 | 74 | 0 | 0.0 | 0.0 | 0.01 | 0.95 | 0.01 | 100 | 1010.5 |
| 20260906081548 | 74 | 0 | 0.0 | 0.0 | 0.01 | 0.95 | 0.01 | 100 | 1010.4 |
| 20260906081019 | 74 | 0 | 0.0 | 0.0 | 0.01 | 0.95 | 0.01 | 100 | 1010.4 |
| 20260906080523 | 74 | 0 | 0.0 | 0.0 | 0.01 | 0.95 | 0.01 | 100 | 1010.3 |
| 20260906080049 | 74 | 0 | 0.0 | 0.0 | 0.01 | 0.95 | 0.01 | 100 | 1010.3 |
| 20260906075521 | 74 | 0 | 0.0 | 0.0 | 0.01 | 0.95 | 0.01 | 100 | 1010.2 |
| 20260906075020 | 74 | 0 | 0.0 | 0.0 | 0.01 | 0.95 | 0.01 | 100 | 1010.1 |
| 20260906074538 | 74 | 0 | 0.0 | 0.0 | 0.01 | 0.95 | 0.01 | 100 | 1010.1 |
| 20260906074019 | 74 | 0 | 0.0 | 0.0 | 0.01 | 0.95 | 0.01 | 100 | 1010.3 |
| 20260906073520 | 74 | 0 | 0.0 | 0.0 | 0.01 | 0.95 | 0.01 | 100 | 1010.3 |
| 20260906073039 | 74 | 0 | 0.0 | 0.0 | 0.01 | 0.95 | 0.01 | 100 | 1010.3 |
| 20260906072521 | 74 | 0 | 0.0 | 0.0 | 0.00 | 0.94 | 0.00 | 100 | 1010.3 |
| 20260906072020 | 74 | 0 | 0.0 | 0.0 | 0.00 | 0.94 | 0.00 | 100 | 1010.3 |
| 20260906071540 | 74 | 0 | 0.0 | 0.0 | 0.00 | 0.94 | 0.00 | 100 | 1010.3 |
| 20260906071021 | 74 | 0 | 0.0 | 0.0 | 0.00 | 0.94 | 0.00 | 100 | 1010.3 |
| 20260906070524 | 74 | 0 | 0.0 | 0.0 | 0.00 | 0.94 | 0.00 | 100 | 1010.2 |
| 20260906070040 | 74 | 0 | 0.0 | 0.0 | 0.00 | 0.94 | 0.00 | 100 | 1010.3 |
| 20260906065519 | 74 | 0 | 0.0 | 0.0 | 0.00 | 0.94 | 0.00 | 100 | 1010.3 |
| 20260906065017 | 74 | 0 | 0.0 | 0.0 | 0.00 | 0.94 | 0.00 | 100 | 1010.3 |
| 20260906064538 | 74 | 0 | 0.0 | 0.0 | 0.00 | 0.94 | 0.00 | 100 | 1010.4 |
| 20260906064022 | 74 | 0 | 0.0 | 0.0 | 0.00 | 0.94 | 0.00 | 100 | 1010.5 |
| 20260906063521 | 74 | 0 | 0.0 | 0.0 | 0.00 | 0.94 | 0.00 | 100 | 1010.6 |
| 20260906063037 | 74 | 0 | 0.0 | 0.0 | 0.00 | 0.94 | 0.00 | 100 | 1010.7 |
| 20260906062525 | 74 | 0 | 0.0 | 0.0 | 0.00 | 0.94 | 0.00 | 100 | 1010.7 |
| 20260906062020 | 74 | 0 | 0.0 | 0.0 | 0.00 | 0.94 | 0.00 | 100 | 1010.8 |
| 20260906061543 | 74 | 0 | 0.0 | 0.0 | 0.00 | 0.94 | 0.00 | 100 | 1010.9 |
| 20260906061021 | 74 | 0 | 0.0 | 0.0 | 0.00 | 0.94 | 0.00 | 100 | 1011.0 |
| 20260906060521 | 74 | 0 | 0.0 | 0.0 | 0.00 | 0.94 | 0.00 | 100 | 1011.1 |
| 20260906060040 | 74 | 0 | 0.0 | 0.0 | 0.00 | 0.94 | 0.00 | 100 | 1011.2 |
| 20260906055519 | 74 | 0 | 0.0 | 0.0 | 0.00 | 0.94 | 0.00 | 100 | 1011.2 |
| 20260906055019 | 74 | 0 | 0.0 | 0.0 | 0.00 | 0.94 | 0.00 | 100 | 1011.2 |
| 20260906054537 | 74 | 0 | 0.0 | 0.0 | 0.00 | 0.94 | 0.00 | 100 | 1011.2 |
| 20260906054021 | 74 | 0 | 0.0 | 0.0 | 0.00 | 0.94 | 0.00 | 100 | 1011.3 |
| 20260906053519 | 74 | 0 | 0.0 | 0.0 | 0.00 | 0.94 | 0.00 | 100 | 1011.4 |
| 20260906053038 | 74 | 0 | 0.0 | 0.0 | 0.00 | 0.94 | 0.00 | 100 | 1011.4 |
| 20260906052521 | 74 | 0 | 0.0 | 0.0 | 0.00 | 0.94 | 0.00 | 100 | 1011.4 |
| 20260906052021 | 75 | 0 | 0.0 | 0.0 | 0.00 | 0.94 | 0.00 | 100 | 1011.4 |
| 20260906051540 | 75 | 0 | 0.0 | 0.0 | 0.00 | 0.94 | 0.00 | 100 | 1011.5 |
| 20260906051019 | 75 | 0 | 0.0 | 0.0 | 0.00 | 0.94 | 0.00 | 100 | 1011.7 |
| 20260906050519 | 75 | 0 | 0.0 | 0.0 | 0.00 | 0.94 | 0.00 | 100 | 1011.7 |
| 20260906050042 | 75 | 0 | 0.0 | 0.0 | 0.00 | 0.94 | 0.00 | 100 | 1011.9 |
| 20260906045520 | 75 | 0 | 0.0 | 0.0 | 0.00 | 0.95 | 0.00 | 100 | 1012.0 |
| 20260906045018 | 75 | 0 | 0.0 | 0.0 | 0.00 | 0.95 | 0.00 | 100 | 1012.1 |
| 20260906044542 | 75 | 0 | 0.0 | 0.0 | 0.00 | 0.95 | 0.00 | 100 | 1012.1 |
| 20260906044021 | 75 | 0 | 0.0 | 0.0 | 0.00 | 0.95 | 0.00 | 100 | 1012.0 |
| 20260906043522 | 75 | 0 | 0.0 | 0.0 | 0.00 | 0.95 | 0.00 | 100 | 1012.1 |
| 20260906043045 | 75 | 0 | 0.0 | 0.0 | 0.00 | 0.95 | 0.00 | 100 | 1012.2 |
| 20260906042518 | 75 | 0 | 0.0 | 0.0 | 0.00 | 0.95 | 0.00 | 100 | 1012.3 |
| 20260906042019 | 75 | 0 | 0.0 | 0.0 | 0.00 | 0.95 | 0.00 | 100 | 1012.2 |
| 20260906041541 | 75 | 0 | 0.0 | 0.0 | 0.00 | 0.95 | 0.00 | 100 | 1012.2 |
| 20260906041024 | 75 | 0 | 0.0 | 0.0 | 0.00 | 0.95 | 0.00 | 100 | 1012.2 |
| 20260906040523 | 75 | 0 | 0.0 | 0.0 | 0.00 | 0.95 | 0.00 | 100 | 1012.0 |
| 20260906040041 | 76 | 0 | 0.0 | 0.0 | 0.00 | 0.95 | 0.00 | 100 | 1012.1 |
| 20260906035523 | 76 | 0 | 0.0 | 0.0 | 0.00 | 0.95 | 0.95 | 100 | 1012.0 |
| 20260906035024 | 76 | 0 | 0.0 | 0.0 | 0.00 | 0.95 | 0.95 | 100 | 1012.2 |
| 20260906034543 | 76 | 0 | 0.0 | 0.0 | 0.00 | 0.95 | 0.95 | 100 | 1012.2 |
| 20260906034021 | 76 | 0 | 0.0 | 0.0 | 0.00 | 0.95 | 0.95 | 100 | 1012.2 |
| 20260906033519 | 76 | 0 | 0.0 | 0.0 | 0.00 | 0.95 | 0.95 | 100 | 1012.0 |
| 20260906033039 | 75 | 0 | 0.0 | 0.0 | 0.00 | 0.95 | 0.95 | 100 | 1012.2 |
| 20260906032524 | 75 | 0 | 0.0 | 0.0 | 0.00 | 0.95 | 0.95 | 100 | 1012.2 |
| 20260906032019 | 75 | 0 | 0.0 | 0.0 | 0.00 | 0.95 | 0.95 | 100 | 1012.2 |
| 20260906031548 | 75 | 0 | 0.0 | 0.0 | 0.00 | 0.95 | 0.95 | 100 | 1012.2 |
| 20260906031018 | 75 | 0 | 0.0 | 0.0 | 0.00 | 0.95 | 0.95 | 100 | 1012.1 |
| 20260906030520 | 76 | 0 | 0.0 | 0.0 | 0.00 | 0.95 | 0.95 | 100 | 1011.9 |
| 20260906030039 | 76 | 0 | 0.0 | 0.0 | 0.00 | 0.95 | 0.95 | 100 | 1012.0 |
| 20260906025521 | 76 | 0 | 0.0 | 0.0 | 0.00 | 0.95 | 0.95 | 100 | 1012.0 |
| 20260906025020 | 76 | 0 | 0.0 | 0.0 | 0.00 | 0.95 | 0.95 | 100 | 1011.9 |
| 20260906024542 | 76 | 0 | 0.0 | 0.0 | 0.00 | 0.95 | 0.95 | 100 | 1011.8 |
| 20260906024025 | 76 | 0 | 0.0 | 0.0 | 0.00 | 0.95 | 0.95 | 100 | 1011.9 |
| 20260906023521 | 76 | 0 | 0.0 | 0.0 | 0.00 | 0.95 | 0.95 | 100 | 1012.0 |
| 20260906023047 | 76 | 0 | 0.0 | 0.0 | 0.00 | 0.95 | 0.95 | 100 | 1011.9 |
| 20260906022521 | 76 | 0 | 0.0 | 0.0 | 0.00 | 0.95 | 0.95 | 100 | 1011.9 |
| 20260906022018 | 76 | 0 | 0.0 | 0.0 | 0.00 | 0.95 | 0.95 | 100 | 1011.9 |
| 20260906021540 | 76 | 0 | 0.0 | 0.0 | 0.00 | 0.95 | 0.95 | 100 | 1011.9 |
| 20260906021019 | 76 | 0 | 0.0 | 0.9 | 0.00 | 0.95 | 0.95 | 100 | 1011.9 |
| 20260906020520 | 76 | 0 | 0.0 | 0.9 | 0.00 | 0.95 | 0.95 | 100 | 1011.9 |
| 20260906020049 | 76 | 0 | 0.0 | 0.0 | 0.00 | 0.95 | 0.95 | 100 | 1012.0 |
| 20260906015526 | 76 | 0 | 0.0 | 0.0 | 0.00 | 0.96 | 0.95 | 100 | 1011.8 |
| 20260906015021 | 76 | 0 | 0.0 | 0.0 | 0.00 | 0.96 | 0.95 | 100 | 1011.9 |
| 20260906014551 | 76 | 0 | 0.0 | 0.0 | 0.00 | 0.96 | 0.95 | 100 | 1011.7 |
| 20260906014022 | 76 | 0 | 0.0 | 0.0 | 0.00 | 0.96 | 0.95 | 100 | 1011.7 |
| 20260906013520 | 76 | 0 | 0.0 | 0.0 | 0.00 | 0.96 | 0.95 | 100 | 1011.6 |
| 20260906013041 | 76 | 0 | 0.0 | 0.0 | 0.00 | 0.96 | 0.95 | 100 | 1011.5 |
| 20260906012520 | 76 | 0 | 0.0 | 0.0 | 0.00 | 0.96 | 0.95 | 100 | 1011.5 |
| 20260906012020 | 76 | 0 | 0.0 | 0.0 | 0.00 | 0.96 | 0.95 | 100 | 1011.4 |
| 20260906011540 | 77 | 0 | 0.0 | 0.0 | 0.00 | 0.96 | 0.95 | 100 | 1011.5 |
| 20260906011022 | 77 | 0 | 0.0 | 0.0 | 0.00 | 0.96 | 0.95 | 100 | 1011.5 |
| 20260906010520 | 77 | 0 | 0.0 | 0.0 | 0.00 | 0.96 | 0.95 | 100 | 1011.5 |
| 20260906010041 | 77 | 0 | 0.0 | 0.0 | 0.00 | 0.96 | 0.95 | 100 | 1011.3 |
| 20260906005521 | 77 | 0 | 0.0 | 0.0 | 0.00 | 1.04 | 0.95 | 100 | 1011.3 |
| 20260906005018 | 77 | 0 | 0.0 | 0.0 | 0.00 | 1.04 | 0.95 | 100 | 1011.2 |
| 20260906004537 | 77 | 0 | 0.0 | 0.0 | 0.00 | 1.04 | 0.95 | 100 | 1011.1 |
| 20260906004024 | 77 | 0 | 0.0 | 0.0 | 0.00 | 1.04 | 0.95 | 100 | 1011.1 |
| 20260906003524 | 77 | 0 | 0.0 | 0.0 | 0.00 | 1.04 | 0.95 | 100 | 1011.1 |
| 20260906003043 | 77 | 0 | 0.0 | 0.0 | 0.00 | 1.04 | 0.95 | 100 | 1011.1 |
| 20260906002521 | 77 | 0 | 0.0 | 0.0 | 0.00 | 1.04 | 0.95 | 100 | 1011.1 |
| 20260906002021 | 77 | 0 | 0.0 | 0.0 | 0.00 | 1.04 | 0.95 | 100 | 1011.1 |
| 20260906001539 | 77 | 0 | 0.0 | 0.0 | 0.00 | 1.04 | 0.95 | 100 | 1011.2 |
| 20260906001019 | 77 | 0 | 0.0 | 0.0 | 0.00 | 1.04 | 0.95 | 100 | 1011.1 |
| 20260906000519 | 77 | 0 | 0.0 | 0.0 | 0.00 | 1.04 | 0.95 | 100 | 1011.1 |
| 20260906000041 | 77 | 0 | 0.0 | 0.0 | 0.00 | 1.04 | 0.95 | 100 | 1011.1 |
| 20260905235520 | 77 | 0 | 0.0 | 0.0 | 0.00 | 1.08 | 0.95 | 100 | 1010.9 |
| 20260905235019 | 77 | 0 | 0.0 | 0.0 | 0.00 | 1.08 | 0.95 | 100 | 1011.1 |
| 20260905234537 | 78 | 0 | 0.0 | 0.0 | 0.00 | 1.08 | 0.95 | 100 | 1011.2 |
| 20260905234031 | 78 | 0 | 0.0 | 0.0 | 0.00 | 1.08 | 0.95 | 100 | 1011.3 |
| 20260905233520 | 78 | 0 | 0.0 | 0.0 | 0.00 | 1.08 | 0.95 | 100 | 1011.4 |
| 20260905233042 | 78 | 0 | 0.0 | 0.0 | 0.00 | 1.08 | 0.95 | 100 | 1011.3 |
| 20260905232521 | 78 | 0 | 0.0 | 0.0 | 0.00 | 1.08 | 0.95 | 100 | 1011.4 |
| 20260905232021 | 78 | 0 | 0.0 | 0.0 | 0.00 | 1.08 | 0.95 | 100 | 1011.4 |
| 20260905231537 | 78 | 0 | 0.0 | 0.0 | 0.00 | 1.08 | 0.95 | 100 | 1011.4 |
| 20260905231020 | 78 | 0 | 0.0 | 0.0 | 0.00 | 1.08 | 0.95 | 100 | 1011.4 |
| 20260905230522 | 78 | 0 | 0.0 | 0.0 | 0.00 | 1.08 | 0.95 | 100 | 1011.4 |
| 20260905230045 | 78 | 0 | 0.0 | 0.0 | 0.00 | 1.08 | 0.95 | 100 | 1011.4 |
| 20260905225520 | 78 | 0 | 0.0 | 0.0 | 0.00 | 1.08 | 0.95 | 100 | 1011.4 |
| 20260905225020 | 78 | 0 | 0.0 | 0.0 | 0.00 | 1.08 | 0.95 | 100 | 1011.3 |
| 20260905224537 | 78 | 0 | 0.0 | 0.0 | 0.00 | 1.08 | 0.95 | 100 | 1011.3 |
| 20260905224019 | 78 | 0 | 0.0 | 0.0 | 0.01 | 1.08 | 0.95 | 100 | 1011.2 |
| 20260905223521 | 78 | 0 | 0.0 | 0.0 | 0.01 | 1.08 | 0.95 | 100 | 1010.9 |
| 20260905223043 | 78 | 0 | 0.0 | 0.0 | 0.02 | 1.08 | 0.95 | 100 | 1010.8 |
| 20260905222521 | 78 | 0 | 0.0 | 0.0 | 0.02 | 1.08 | 0.95 | 100 | 1010.9 |
| 20260905222027 | 78 | 0 | 0.0 | 0.0 | 0.03 | 1.08 | 0.95 | 100 | 1010.9 |
| 20260905221547 | 78 | 0 | 0.0 | 0.0 | 0.03 | 1.08 | 0.95 | 100 | 1010.9 |
| 20260905221020 | 78 | 0 | 0.0 | 0.0 | 0.03 | 1.08 | 0.95 | 100 | 1010.9 |
| 20260905220520 | 78 | 0 | 0.0 | 0.0 | 0.03 | 1.08 | 0.95 | 100 | 1011.0 |
| 20260905220041 | 78 | 0 | 0.0 | 0.0 | 0.04 | 1.08 | 0.95 | 100 | 1011.1 |
| 20260905215524 | 78 | 0 | 0.0 | 0.0 | 0.04 | 1.08 | 0.95 | 100 | 1011.2 |
| 20260905215018 | 77 | 0 | 0.0 | 0.0 | 0.05 | 1.08 | 0.95 | 100 | 1011.2 |
| 20260905214539 | 77 | 0 | 0.0 | 0.0 | 0.05 | 1.08 | 0.95 | 100 | 1011.4 |
| 20260905214021 | 77 | 0 | 0.0 | 0.0 | 0.05 | 1.07 | 0.94 | 100 | 1011.4 |
| 20260905213519 | 77 | 0 | 0.0 | 0.0 | 0.05 | 1.07 | 0.94 | 100 | 1011.3 |
| 20260905213040 | 77 | 0 | 0.0 | 0.0 | 0.05 | 1.05 | 0.93 | 100 | 1011.3 |
| 20260905212520 | 77 | 0 | 0.0 | 0.0 | 0.05 | 1.05 | 0.93 | 100 | 1011.3 |
| 20260905212026 | 77 | 0 | 0.0 | 0.0 | 0.05 | 1.04 | 0.92 | 100 | 1011.3 |
| 20260905211545 | 77 | 0 | 0.0 | 0.0 | 0.05 | 1.04 | 0.92 | 100 | 1011.4 |
| 20260905211022 | 77 | 0 | 0.0 | 0.0 | 0.06 | 1.04 | 0.92 | 100 | 1011.5 |
| 20260905210518 | 77 | 0 | 0.0 | 0.0 | 0.06 | 1.04 | 0.92 | 100 | 1011.4 |
| 20260905210055 | 77 | 0 | 0.0 | 0.0 | 0.05 | 1.04 | 0.91 | 100 | 1011.5 |
| 20260905205519 | 77 | 0 | 0.0 | 0.0 | 0.06 | 1.04 | 0.91 | 100 | 1011.6 |
| 20260905205020 | 77 | 0 | 0.0 | 0.0 | 0.05 | 1.03 | 0.90 | 100 | 1011.8 |
| 20260905204542 | 77 | 0 | 0.0 | 0.0 | 0.06 | 1.03 | 0.90 | 100 | 1011.9 |
| 20260905204019 | 77 | 0 | 0.0 | 0.0 | 0.05 | 1.02 | 0.89 | 100 | 1012.0 |
| 20260905203518 | 76 | 0 | 0.0 | 0.0 | 0.05 | 1.02 | 0.89 | 100 | 1012.0 |
| 20260905203038 | 76 | 0 | 0.0 | 0.0 | 0.04 | 1.01 | 0.88 | 100 | 1011.9 |
| 20260905202520 | 76 | 0 | 0.0 | 0.0 | 0.05 | 1.01 | 0.88 | 100 | 1012.0 |
| 20260905202020 | 76 | 0 | 0.0 | 0.0 | 0.04 | 1.00 | 0.87 | 100 | 1012.1 |
| 20260905201539 | 76 | 0 | 0.0 | 0.0 | 0.04 | 1.00 | 0.87 | 100 | 1012.2 |
| 20260905201025 | 76 | 0 | 0.0 | 0.0 | 0.03 | 0.99 | 0.86 | 100 | 1012.3 |
| 20260905200521 | 76 | 0 | 0.0 | 0.0 | 0.03 | 0.99 | 0.86 | 100 | 1012.6 |
| 20260905200055 | 76 | 0 | 0.0 | 0.0 | 0.03 | 0.99 | 0.86 | 100 | 1012.6 |
| 20260905195521 | 76 | 0 | 0.0 | 0.0 | 0.02 | 0.98 | 0.85 | 100 | 1012.5 |
| 20260905195021 | 76 | 0 | 0.0 | 0.0 | 0.02 | 0.98 | 0.85 | 100 | 1012.6 |
| 20260905194540 | 76 | 0 | 0.0 | 0.9 | 0.02 | 0.97 | 0.84 | 100 | 1012.5 |
| 20260905194019 | 76 | 0 | 0.0 | 0.9 | 0.05 | 0.97 | 0.84 | 100 | 1012.5 |
| 20260905193518 | 76 | 0 | 0.0 | 0.0 | 0.10 | 0.97 | 0.84 | 100 | 1012.6 |
| 20260905193035 | 76 | 0 | 0.0 | 0.0 | 0.20 | 0.96 | 0.83 | 100 | 1012.6 |
| 20260905192521 | 76 | 0 | 0.0 | 0.0 | 0.43 | 0.96 | 0.83 | 100 | 1012.6 |
| 20260905192020 | 76 | 0 | 0.0 | 0.0 | 0.58 | 0.96 | 0.83 | 100 | 1012.5 |
| 20260905191540 | 76 | 0 | 0.0 | 0.0 | 0.60 | 0.96 | 0.83 | 100 | 1012.1 |
| 20260905191019 | 75 | 0 | 0.0 | 0.0 | 0.60 | 0.96 | 0.83 | 100 | 1012.0 |
| 20260905190520 | 75 | 0 | 0.0 | 0.0 | 0.60 | 0.96 | 0.83 | 100 | 1011.9 |
| 20260905190039 | 75 | 0 | 0.0 | 0.0 | 0.60 | 0.96 | 0.83 | 100 | 1012.1 |
| 20260905185517 | 75 | 0 | 0.0 | 0.0 | 0.60 | 0.96 | 0.83 | 100 | 1012.3 |
| 20260905185018 | 75 | 0 | 0.0 | 0.0 | 0.60 | 0.96 | 0.83 | 100 | 1012.4 |
| 20260905184542 | 75 | 0 | 0.0 | 0.9 | 0.58 | 0.95 | 0.82 | 100 | 1012.5 |
| 20260905184024 | 75 | 0 | 0.0 | 2.6 | 0.55 | 0.91 | 0.78 | 99 | 1013.1 |
| 20260905183521 | 76 | 0 | 0.0 | 3.5 | 0.51 | 0.87 | 0.74 | 97 | 1013.1 |
| 20260905183039 | 78 | 316 | 0.9 | 3.5 | 0.37 | 0.73 | 0.60 | 95 | 1013.1 |
| 20260905182525 | 79 | 191 | 0.0 | 5.2 | 0.13 | 0.49 | 0.36 | 94 | 1013.4 |
| 20260905182020 | 81 | 276 | 0.9 | 6.1 | 0.01 | 0.37 | 0.24 | 90 | 1013.1 |
| 20260905181541 | 85 | 94 | 1.7 | 6.1 | 0.00 | 0.36 | 0.23 | 84 | 1013.3 |
| 20260905181019 | 89 | 244 | 0.9 | 6.1 | 0.00 | 0.36 | 0.23 | 82 | 1012.9 |
| 20260905180524 | 90 | 0 | 0.0 | 0.9 | 0.00 | 0.36 | 0.23 | 85 | 1012.4 |
| 20260905180039 | 89 | 0 | 0.0 | 0.9 | 0.00 | 0.36 | 0.23 | 88 | 1012.1 |
| 20260905175517 | 88 | 0 | 0.0 | 0.0 | 0.00 | 0.36 | 0.23 | 90 | 1012.1 |
| 20260905175021 | 89 | 0 | 0.0 | 0.9 | 0.07 | 0.36 | 0.23 | 90 | 1012.1 |